[[{"header":{"parameterUnit":"m.s-1","parameterCategory":1,"la1":30.2991,"la2":30.254,"lo1":-89.0895,"lo2":-89.0444,"dy":0.0017,"dx":0.0017,"nx":28,"ny":28,"refTime":"2025-03-20T21:00:00:Z","depth":0,"parameterNumber":2,"parameterNumberName":"U-component_of_WINDS"},"data":[0,0,0,0,0,0,0,0,0,0,0,0,0,0,0,0,0,0,0,0,0,0,0,0,0,0,0,0,0,0,0,0,0,0,0,0,0,0,0,0,0,0,0,0,0,0,0,0,0,0,0,0,0,0,0,0,0,0,2.7031,2.7034,0,2.7237,2.724,2.7242,2.7242,2.7239,2.7237,2.7234,2.7446,2.7454,2.7462,0,0,0,0,0,0,0,0,0,0,0,0,0,2.6638,2.6645,2.7031,2.7034,2.7036,2.7237,2.724,2.7242,2.7242,2.7239,2.7236,2.7233,2.7443,2.7453,2.7463,0,0,0,0,0,0,0,0,0,0,0,0,0,2.6822,2.6647,2.7031,2.706,2.7065,2.7236,2.724,2.7243,2.7243,2.7239,2.7235,2.7231,2.744,2.7452,2.7464,2.7619,0,0,2.7501,2.7506,0,0,0,0,0,0,0,0,2.6812,2.6837,2.7053,2.7059,2.7064,2.721,2.7178,2.7369,2.7244,2.7176,2.7234,2.7229,2.7371,2.7388,2.7436,2.7629,2.7638,2.7502,2.751,2.7515,2.7518,0,0,0,0,0,0,0,2.6799,2.6828,2.7113,2.7057,2.7063,2.7063,2.7085,2.7215,2.7293,2.7181,2.7182,2.7206,2.7373,2.7424,2.7441,2.7641,2.7502,2.7513,2.752,2.7525,2.7972,2.7976,0,0,0,0,0,0,2.678,2.6817,2.7106,2.7119,2.6926,2.7074,2.7098,2.7167,2.7292,2.7307,2.7209,2.7205,2.7405,2.7426,2.7448,2.7638,2.7515,2.7526,2.7533,2.7967,2.7973,2.7977,0,0,0,0,0,0,2.6772,2.6806,2.7098,2.6968,2.7005,2.7085,2.7162,2.7173,2.7224,2.7313,2.7327,2.7247,2.7403,2.7431,2.7576,2.7645,2.7532,2.7543,2.7962,2.7969,2.7975,2.8018,0,0,0,0,0,0,2.676,2.6803,2.6863,2.697,2.7012,2.7223,2.7166,2.718,2.7245,2.7242,2.7352,2.7366,2.7402,2.7558,2.7588,2.766,2.7552,2.7956,2.7965,2.7973,2.8011,2.8026,2.8038,0,0,0,0,0,2.6746,2.6868,2.6866,2.6901,2.7089,2.7227,2.7251,2.7289,2.7251,2.7312,2.7368,2.7363,2.7632,2.7573,2.7607,2.7683,2.7952,2.7962,2.7972,2.8005,2.8023,2.8038,0,0,0,0,0,0,2.6768,2.6882,2.6882,2.7041,2.7124,2.7227,2.7305,2.7307,2.7403,2.7396,2.7439,2.7464,2.7609,2.7661,2.7592,2.7839,2.7787,2.7805,2.7801,2.7818,2.7832,2.7816,2.7562,0,0,0,0,0,2.6791,2.6893,2.6987,2.7119,2.716,2.7225,2.7287,2.7309,2.7397,2.7432,2.7499,2.7585,2.7689,2.7756,2.7857,2.8018,2.8042,2.8087,2.8101,2.8111,2.8126,2.8215,2.8236,2.8011,2.8011,2.8011,0,0,2.684,2.6915,2.6977,2.7125,2.7192,2.7297,2.7255,2.7368,2.7446,2.7449,2.759,2.7643,2.7741,2.7895,2.7966,2.7942,2.8193,2.8125,2.8132,2.8142,2.8227,2.8248,2.8267,2.8018,2.8017,2.8016,0,0,2.6983,2.705,2.7166,2.7234,2.7335,2.7378,2.7405,2.7508,2.7542,2.7684,2.7689,2.7782,2.796,2.803,2.8088,2.8256,2.8254,2.8287,2.8359,2.8444,2.8462,2.8478,2.8537,2.8558,2.8302,2.8302,2.8302,0,2.7031,2.7189,2.7226,2.7339,2.7403,2.741,2.7528,2.7592,2.7721,2.7766,2.7737,2.796,2.8027,2.8197,2.8237,2.8285,2.8317,2.8275,2.8456,2.8472,2.8488,2.8545,2.8567,2.8305,2.8305,2.8304,2.8304,0,2.7243,2.7352,2.7434,2.7558,2.7632,2.7746,2.78,2.7871,2.7885,2.793,2.8075,2.8155,2.8271,2.8313,2.8329,2.8485,2.8467,2.8447,2.8395,2.8512,2.8566,2.8588,2.831,2.8309,2.8308,2.8307,0,0,2.7407,2.7548,2.7577,2.7633,2.7745,2.783,2.7945,2.8058,2.8117,2.8205,2.8302,2.8452,2.8434,2.85,2.8524,2.8599,2.8726,2.857,2.8573,2.8596,2.8902,2.8916,2.8941,2.8725,2.8729,2.8733,2.8893,0,2.7561,2.7765,2.7801,2.7978,2.8079,2.8086,2.8186,2.8265,2.831,2.8402,2.8451,2.8556,2.8525,2.8565,2.8639,2.8695,2.8788,2.8684,2.8816,2.882,2.8791,2.8969,2.8985,2.9133,2.8915,2.8918,2.8921,0,2.7769,2.7862,2.805,2.8146,2.819,2.8279,2.8385,2.8473,2.8562,2.8589,2.8663,2.8678,2.8797,2.8739,2.8903,2.8831,2.8887,2.8923,2.8929,2.8943,2.8878,2.8988,2.9181,2.9203,2.8955,2.8952,2.895,0,2.7869,2.8041,2.8175,2.8223,2.8339,2.8401,2.8453,2.8538,2.8603,2.8696,2.8738,2.8844,2.8902,2.8983,2.9025,2.8979,2.9186,2.9132,2.9212,2.9211,2.9255,2.9252,2.946,2.9291,2.9291,2.9291,2.929,0,2.8038,2.8153,2.8222,2.8304,2.8432,2.8472,2.8597,2.8648,2.8723,2.8815,2.8828,2.8914,2.8965,2.9059,2.9093,2.9223,2.9249,2.9274,2.9282,2.9273,2.927,2.9311,2.9301,2.9297,2.9295,2.9294,2.9293,0,2.8172,2.8223,2.837,2.8467,2.8494,2.8584,2.8667,2.8748,2.8791,2.8908,2.8937,2.9006,2.9117,2.9167,2.9304,2.9326,2.9475,2.9475,2.9444,2.9447,2.9524,2.9515,2.9765,2.9799,2.9608,2.961,2.9611,0,2.8277,2.8365,2.8471,2.8533,2.8586,2.8687,2.8753,2.8795,2.8863,2.897,2.9038,2.9148,2.9239,2.9416,2.9478,2.9582,2.9586,2.9666,2.9601,2.9589,2.9586,2.958,2.9589,2.9677,2.9679,2.9681,2.9682,0,2.8457,2.8478,2.8572,2.8676,2.8754,2.8838,2.892,2.897,2.9024,2.91,2.9213,2.9284,2.9422,2.9532,2.964,2.9693,2.9697,2.9702,2.9725,2.9717,2.9696,2.9708,2.9476,2.9696,2.9694,2.9693,2.9693,2.9692,2.858,2.8658,2.8744,2.8849,2.8915,2.899,2.907,2.9123,2.9218,2.9333,2.9352,2.9472,2.9558,2.9704,2.976,2.9855,2.9835,2.987,2.9879,2.9887,2.9891,2.968,2.9875,2.9874,2.9874,2.9874,2.9873,0,2.8761,2.8816,2.8912,2.9025,2.9107,2.9102,2.9192,2.9261,2.9367,2.9446,2.9535,2.9664,2.977,2.9839,2.9947,3.0009,3.0013,3.0035,3.0031,3.0043,2.9902,2.9871,3.003,3.003,3.003,3.003,3.003,3.003,2.8864,2.8996,2.9026,2.9189,2.9244,2.9361,2.9412,2.9482,2.9546,2.9689,2.9776,2.9821,2.9896,3.0009,3.0106,3.0123,3.0162,3.0185,3.0202,3.007,3.0053,3.0038,3.0008,3.0194,3.0194,3.0335,3.0337,3.0338]},{"header":{"parameterUnit":"m.s-1","parameterCategory":1,"la1":30.2991,"la2":30.254,"lo1":-89.0895,"lo2":-89.0444,"dy":0.0017,"dx":0.0017,"nx":28,"ny":28,"refTime":"2025-03-20T21:00:00:Z","depth":0,"parameterNumber":3,"parameterNumberName":"V-component_of_WINDS"},"data":[0,0,0,0,0,0,0,0,0,0,0,0,0,0,0,0,0,0,0,0,0,0,0,0,0,0,0,0,0,0,0,0,0,0,0,0,0,0,0,0,0,0,0,0,0,0,0,0,0,0,0,0,0,0,0,0,0,0,-1.6909,-1.6909,0,-1.6978,-1.6979,-1.698,-1.701,-1.701,-1.701,-1.701,-1.7079,-1.7081,-1.7083,0,0,0,0,0,0,0,0,0,0,0,0,0,-1.68,-1.6801,-1.6908,-1.6909,-1.691,-1.6978,-1.6979,-1.698,-1.701,-1.701,-1.701,-1.701,-1.7078,-1.708,-1.7083,0,0,0,0,0,0,0,0,0,0,0,0,0,-1.6856,-1.6802,-1.6908,-1.6934,-1.6937,-1.6978,-1.6979,-1.698,-1.701,-1.701,-1.701,-1.701,-1.7077,-1.708,-1.7083,-1.7104,0,0,-1.7092,-1.7093,0,0,0,0,0,0,0,0,-1.6852,-1.686,-1.6929,-1.6932,-1.6935,-1.6985,-1.6966,-1.7021,-1.701,-1.6982,-1.701,-1.701,-1.7048,-1.7053,-1.7066,-1.7107,-1.711,-1.7092,-1.7094,-1.7095,-1.7096,0,0,0,0,0,0,0,-1.6849,-1.6857,-1.6936,-1.693,-1.6934,-1.6941,-1.6949,-1.6976,-1.7015,-1.6985,-1.6987,-1.6995,-1.7049,-1.7063,-1.7068,-1.7111,-1.7092,-1.7095,-1.7096,-1.7097,-1.7172,-1.7172,0,0,0,0,0,0,-1.6841,-1.6853,-1.6934,-1.6938,-1.6893,-1.6943,-1.6952,-1.6969,-1.7015,-1.7021,-1.6995,-1.6996,-1.7059,-1.7065,-1.7071,-1.7098,-1.7095,-1.7098,-1.7099,-1.7171,-1.7172,-1.7172,0,0,0,0,0,0,-1.6838,-1.6848,-1.6931,-1.6896,-1.6908,-1.6945,-1.6965,-1.6971,-1.6985,-1.7023,-1.7029,-1.7003,-1.7059,-1.7067,-1.7095,-1.7101,-1.7099,-1.7102,-1.7171,-1.7172,-1.7172,-1.7152,0,0,0,0,0,0,-1.6835,-1.6847,-1.6855,-1.6896,-1.6909,-1.6955,-1.6965,-1.6972,-1.699,-1.6992,-1.7031,-1.7038,-1.7059,-1.7091,-1.7098,-1.7105,-1.7104,-1.7171,-1.7171,-1.7172,-1.7153,-1.7152,-1.7151,0,0,0,0,0,-1.6831,-1.6846,-1.6856,-1.6865,-1.6921,-1.6955,-1.6963,-1.6988,-1.699,-1.6999,-1.7023,-1.7036,-1.7099,-1.7094,-1.7102,-1.7109,-1.7171,-1.7171,-1.7172,-1.7153,-1.7152,-1.7151,0,0,0,0,0,0,-1.6804,-1.6852,-1.6863,-1.6892,-1.692,-1.696,-1.6972,-1.6986,-1.7013,-1.7013,-1.7043,-1.7051,-1.7078,-1.7096,-1.709,-1.7132,-1.7136,-1.7138,-1.7119,-1.7118,-1.7117,-1.7112,-1.7106,0,0,0,0,0,-1.6802,-1.6826,-1.6867,-1.6889,-1.6902,-1.6935,-1.695,-1.6968,-1.6997,-1.7008,-1.7034,-1.7062,-1.7087,-1.7104,-1.713,-1.7155,-1.7164,-1.7165,-1.7164,-1.7163,-1.7165,-1.718,-1.7181,-1.7174,-1.7174,-1.7174,0,0,-1.6797,-1.6826,-1.684,-1.6884,-1.6907,-1.6931,-1.6944,-1.6969,-1.6987,-1.7012,-1.7041,-1.7061,-1.7093,-1.7121,-1.7134,-1.7137,-1.7169,-1.7164,-1.7163,-1.7165,-1.7181,-1.7181,-1.7182,-1.7174,-1.7174,-1.7174,0,0,-1.68,-1.6825,-1.6846,-1.6869,-1.6905,-1.6926,-1.6931,-1.697,-1.6985,-1.7014,-1.7034,-1.7055,-1.7099,-1.7121,-1.7138,-1.715,-1.7163,-1.7157,-1.7154,-1.7168,-1.7169,-1.717,-1.7174,-1.7175,-1.7159,-1.7159,-1.7159,0,-1.6789,-1.6827,-1.6855,-1.6879,-1.6898,-1.6922,-1.6943,-1.6964,-1.7005,-1.7018,-1.7021,-1.7076,-1.71,-1.7133,-1.7136,-1.7149,-1.7155,-1.7153,-1.7167,-1.7168,-1.7169,-1.7173,-1.7175,-1.7158,-1.7158,-1.7158,-1.7158,0,-1.6812,-1.6838,-1.6851,-1.6891,-1.6911,-1.6934,-1.6964,-1.6981,-1.6996,-1.7017,-1.7047,-1.7076,-1.7109,-1.7118,-1.7132,-1.7153,-1.7154,-1.7161,-1.7166,-1.7168,-1.7173,-1.7175,-1.7157,-1.7157,-1.7157,-1.7158,0,0,-1.6801,-1.6856,-1.6861,-1.6879,-1.692,-1.694,-1.6963,-1.6996,-1.701,-1.7037,-1.7057,-1.7094,-1.7102,-1.7121,-1.7138,-1.7151,-1.7159,-1.7157,-1.7159,-1.7157,-1.7183,-1.7177,-1.7178,-1.7168,-1.7168,-1.7168,-1.718,0,-1.681,-1.6854,-1.6879,-1.6912,-1.6936,-1.696,-1.698,-1.7007,-1.7027,-1.705,-1.7072,-1.7098,-1.7106,-1.7118,-1.7131,-1.7155,-1.7164,-1.7154,-1.7186,-1.7187,-1.7177,-1.7181,-1.7175,-1.7184,-1.7182,-1.7182,-1.7183,0,-1.6826,-1.6854,-1.689,-1.6928,-1.6939,-1.6957,-1.6989,-1.7011,-1.7041,-1.7055,-1.7077,-1.7094,-1.7119,-1.7122,-1.7157,-1.7149,-1.7164,-1.7178,-1.7179,-1.7182,-1.7185,-1.7185,-1.7188,-1.7189,-1.7186,-1.7186,-1.7185,0,-1.6814,-1.6861,-1.6889,-1.6904,-1.6949,-1.6961,-1.698,-1.7011,-1.7028,-1.7056,-1.7068,-1.7097,-1.7113,-1.7135,-1.7161,-1.716,-1.7193,-1.7198,-1.7205,-1.7204,-1.721,-1.721,-1.7216,-1.7219,-1.7219,-1.7219,-1.7219,0,-1.6822,-1.6843,-1.6884,-1.6901,-1.6925,-1.6953,-1.6976,-1.6997,-1.7024,-1.7045,-1.7066,-1.7085,-1.7117,-1.714,-1.716,-1.7186,-1.7193,-1.7204,-1.7209,-1.7202,-1.7201,-1.7212,-1.7212,-1.722,-1.722,-1.722,-1.722,0,-1.6813,-1.6841,-1.6873,-1.6913,-1.6923,-1.6939,-1.6974,-1.699,-1.7012,-1.7038,-1.7046,-1.7079,-1.7107,-1.7135,-1.7172,-1.7185,-1.7211,-1.7217,-1.7201,-1.7203,-1.7209,-1.7208,-1.7223,-1.7226,-1.7227,-1.7227,-1.7227,0,-1.6816,-1.6833,-1.6875,-1.6891,-1.691,-1.6935,-1.6953,-1.6982,-1.7,-1.7036,-1.7049,-1.7079,-1.7104,-1.7147,-1.7175,-1.7203,-1.7211,-1.7214,-1.7215,-1.7208,-1.7211,-1.721,-1.7212,-1.7213,-1.7213,-1.7213,-1.7213,0,-1.6818,-1.6831,-1.6858,-1.6889,-1.691,-1.6936,-1.6962,-1.6974,-1.7007,-1.7027,-1.7056,-1.7076,-1.7114,-1.7143,-1.7175,-1.7194,-1.7209,-1.7212,-1.7216,-1.7209,-1.7199,-1.7204,-1.7199,-1.7212,-1.7212,-1.7212,-1.7212,-1.7212,-1.6815,-1.6831,-1.6864,-1.6892,-1.6915,-1.6939,-1.6957,-1.6981,-1.7006,-1.704,-1.7055,-1.7085,-1.7115,-1.716,-1.7178,-1.7202,-1.7205,-1.721,-1.7211,-1.7212,-1.721,-1.7195,-1.7207,-1.7207,-1.7208,-1.7208,-1.7208,0,-1.6819,-1.6841,-1.6867,-1.6903,-1.6925,-1.6938,-1.6968,-1.6985,-1.7011,-1.7038,-1.7063,-1.7097,-1.7125,-1.7155,-1.7185,-1.7198,-1.7205,-1.7205,-1.7204,-1.7208,-1.7205,-1.7199,-1.7198,-1.7198,-1.7198,-1.7198,-1.7198,-1.7198,-1.6823,-1.6851,-1.6868,-1.6907,-1.6929,-1.6959,-1.6975,-1.6997,-1.7019,-1.7055,-1.7079,-1.7099,-1.7127,-1.7159,-1.7186,-1.7194,-1.7204,-1.7201,-1.7211,-1.7208,-1.7208,-1.7209,-1.7204,-1.7203,-1.7203,-1.7212,-1.7212,-1.7212]}]]